DW9425 Weather Reports


Display with metric or nautical units.
time (UTC)temp
F
wind
direction
speed
MPH
gust
MPH
rain 1hr
in
rain 24hr
in
rain mn
in
humidity
%
barometer
mb
20240301233015 58 281 9.0 18.0 0.00 0.00 0.00 17 1016.0
20240301231515 59 282 10.0 20.0 0.00 0.00 0.00 17 1016.0
20240301230016 60 298 10.0 19.0 0.00 0.00 0.00 17 1016.0
20240301224512 60 253 6.0 17.0 0.00 0.00 0.00 17 1016.0
20240301223010 60 309 11.0 22.0 0.00 0.00 0.00 18 1016.2
20240301221508 59 288 8.0 18.0 0.00 0.00 0.00 18 1016.2
20240301220006 59 275 9.0 19.0 0.00 0.00 0.00 21 1016.4
20240301214505 59 285 10.0 20.0 0.00 0.00 0.00 20 1016.4
20240301213003 60 246 16.0 26.0 0.00 0.00 0.00 20 1016.4
20240301211600 59 243 15.0 22.0 0.00 0.00 0.00 20 1016.3
20240301210102 58 257 15.0 26.0 0.00 0.00 0.00 20 1016.5
20240301204557 59 240 13.0 28.0 0.00 0.00 0.00 23 1016.7
20240301203104 59 227 14.0 22.0 0.00 0.00 0.00 24 1016.8
20240301201558 58 220 8.0 24.0 0.00 0.00 0.00 28 1017.1
20240301200049 57 219 16.0 23.0 0.00 0.00 0.00 28 1017.4
20240301194548 57 212 12.0 28.0 0.00 0.00 0.00 29 1017.6
20240301193049 57 270 9.0 14.0 0.00 0.00 0.00 30 1017.8
20240301191543 56 242 11.0 24.0 0.00 0.00 0.00 32 1017.9
20240301190038 54 266 5.0 20.0 0.00 0.00 0.00 33 1018.3
20240301184536 53 300 5.0 12.0 0.00 0.00 0.00 34 1018.4
20240301183037 52 244 10.0 15.0 0.00 0.00 0.00 37 1018.8
20240301181528 52 243 9.0 16.0 0.00 0.00 0.00 40 1018.9
20240301180029 51 240 7.0 11.0 0.00 0.00 0.00 43 1018.9
20240301174521 50 241 6.0 14.0 0.00 0.00 0.00 44 1018.9
20240301173017 49 244 7.0 13.0 0.00 0.00 0.00 46 1019.0
20240301171513 48 236 8.0 13.0 0.00 0.00 0.00 49 1019.2
20240301170007 47 219 5.0 11.0 0.00 0.00 0.00 53 1019.2
20240301164503 45 248 6.0 12.0 0.00 0.00 0.00 56 1019.2
20240301163100 44 246 6.0 9.0 0.00 0.00 0.00 59 1019.2
20240301161555 42 182 2.0 5.0 0.00 0.00 0.00 66 1019.2
20240301160051 39 215 3.0 9.0 0.00 0.00 0.00 73 1019.2
20240301154558 37 257 1.0 9.0 0.00 0.00 0.00 76 1019.1
20240301153044 35 240 1.0 4.0 0.00 0.00 0.00 81 1019.0
20240301151536 33 275 1.0 6.0 0.00 0.00 0.00 85 1018.8
20240301150021 31 153 0.0 3.0 0.00 0.00 0.00 90 1018.8
20240301144513 29 153 0.0 0.0 0.00 0.00 0.00 91 1018.7
20240301143011 28 152 0.0 0.0 0.00 0.00 0.00 89 1018.6
20240301141506 28 152 0.0 0.0 0.00 0.00 0.00 88 1018.4
20240301140005 28 152 0.0 2.0 0.00 0.00 0.00 87 1018.3
20240301134501 28 153 0.0 0.0 0.00 0.00 0.00 87 1018.2
20240301133100 29 153 0.0 2.0 0.00 0.00 0.00 87 1018.2
20240301131557 29 153 2.0 4.0 0.00 0.00 0.00 87 1018.1
20240301130057 30 153 2.0 5.0 0.00 0.00 0.00 87 1018.1
20240301124553 30 211 2.0 3.0 0.00 0.00 0.00 87 1017.9
20240301123058 31 227 0.0 3.0 0.00 0.00 0.00 88 1017.9
20240301121550 31 226 3.0 7.0 0.00 0.00 0.00 88 1017.9
20240301120050 31 216 4.0 8.0 0.00 0.00 0.00 88 1017.8
20240301114549 32 238 1.0 4.0 0.00 0.00 0.00 87 1017.7
20240301113047 32 226 3.0 8.0 0.00 0.00 0.00 88 1017.3
20240301111546 32 218 6.0 12.0 0.00 0.00 0.00 89 1017.2
20240301110043 31 181 1.0 3.0 0.00 0.00 0.00 88 1017.3
20240301104543 31 180 1.0 4.0 0.00 0.00 0.00 87 1017.3
20240301103040 31 11 0.0 2.0 0.00 0.00 0.00 86 1017.3
20240301101538 31 11 2.0 5.0 0.00 0.00 0.00 86 1017.4
20240301100051 32 11 0.0 3.0 0.00 0.00 0.00 86 1017.5
20240301094536 33 11 0.0 3.0 0.00 0.00 0.00 86 1017.5
20240301093036 33 94 1.0 4.0 0.00 0.00 0.00 87 1017.6
20240301091533 33 260 2.0 3.0 0.00 0.00 0.00 89 1017.6
20240301090033 32 260 1.0 4.0 0.00 0.00 0.00 87 1017.5
20240301084533 32 298 1.0 3.0 0.00 0.00 0.00 85 1017.6
20240301083033 32 38 1.0 2.0 0.00 0.00 0.00 84 1017.6
20240301081524 33 38 0.0 0.0 0.00 0.00 0.00 83 1017.6
20240301080022 34 38 0.0 1.0 0.00 0.00 0.00 81 1017.6
20240301074518 35 38 0.0 2.0 0.00 0.00 0.00 81 1017.4
20240301073015 36 38 0.0 3.0 0.00 0.00 0.00 79 1017.5
20240301071516 36 39 2.0 6.0 0.00 0.00 0.00 82 1017.5
20240301070008 35 5 2.0 3.0 0.00 0.00 0.00 81 1017.5
20240301064516 36 5 0.0 2.0 0.00 0.00 0.00 80 1017.5
20240301063007 37 5 1.0 4.0 0.00 0.00 0.00 80 1017.5
20240301061511 37 324 1.0 2.0 0.00 0.00 0.00 78 1017.7
20240301060015 38 324 1.0 5.0 0.00 0.00 0.00 78 1017.6
20240301054508 38 313 2.0 5.0 0.00 0.00 0.00 77 1017.5
20240301053004 39 323 3.0 6.0 0.00 0.00 0.00 75 1017.6
20240301051503 39 321 2.0 8.0 0.00 0.00 0.00 73 1017.5
20240301050002 39 294 3.0 7.0 0.00 0.00 0.00 71 1017.5
20240301044507 40 293 3.0 7.0 0.00 0.00 0.00 70 1017.5
20240301043001 40 279 2.0 8.0 0.00 0.00 0.00 68 1017.6
20240301041601 40 284 1.0 4.0 0.00 0.00 0.00 64 1017.6
20240301040103 41 277 2.0 5.0 0.00 0.00 0.00 57 1017.5
20240301034611 42 313 3.0 5.0 0.00 0.00 0.00 50 1017.3
20240301033057 42 320 3.0 5.0 0.00 0.00 0.00 48 1017.2
20240301031615 43 289 3.0 8.0 0.00 0.00 0.00 41 1017.1
20240301030056 44 237 6.0 9.0 0.00 0.00 0.00 28 1016.9
20240301024555 45 342 4.0 10.0 0.00 0.00 0.00 28 1016.3
20240301023054 45 350 5.0 10.0 0.00 0.00 0.00 27 1016.4
20240301021553 45 325 4.0 8.0 0.00 0.00 0.00 28 1016.4
20240301020053 47 342 4.0 10.0 0.00 0.00 0.00 26 1016.2
20240301014609 47 331 4.0 6.0 0.00 0.00 0.00 32 1016.1
20240301013052 48 327 2.0 6.0 0.00 0.00 0.00 31 1015.9
20240301011557 49 331 2.0 4.0 0.00 0.00 0.00 31 1015.6
20240301010051 50 331 2.0 4.0 0.00 0.00 0.00 30 1015.5
20240301004600 51 330 3.0 5.0 0.00 0.00 0.00 30 1015.4
20240301003105 52 312 3.0 5.0 0.00 0.00 0.00 30 1015.3
20240301001548 52 291 3.0 11.0 0.00 0.00 0.00 30 1015.3
20240301000058 53 265 3.0 8.0 0.00 0.00 0.00 30 1015.3
20240229234550 54 263 6.0 10.0 0.00 0.00 0.00 30 1015.3